TimeCST,TemperatureF,Dew PointF,Humidity,Sea Level PressureIn,VisibilityMPH,Wind Direction,Wind SpeedMPH,Gust SpeedMPH,PrecipitationIn,Events,Conditions,WindDirDegrees,DateUTC
12:00 AM,-39,-46,50,30.30,,Calm,Calm,,,,,,2013-01-25 06:00:00
12:00 AM,-38.7,-45.9,67,30.30,-9999.0,Calm,Calm,-,N/A,,Unknown,0,2013-01-25 06:00:00
1:00 AM,-39.6,-46.8,67,30.29,-9999.0,East,2.3,-,N/A,,Unknown,80,2013-01-25 07:00:00
2:00 AM,-39.6,-46.7,68,30.28,-9999.0,South,1.2,-,N/A,,Unknown,190,2013-01-25 08:00:00
3:00 AM,-40.5,-47.9,66,30.28,-9999.0,Calm,Calm,-,N/A,,Unknown,0,2013-01-25 09:00:00
4:00 AM,-41.6,-49.2,65,30.28,-9999.0,Calm,Calm,-,N/A,,Unknown,0,2013-01-25 10:00:00
5:00 AM,-40.5,-47.9,66,30.29,-9999.0,Calm,Calm,-,N/A,,Unknown,0,2013-01-25 11:00:00
6:00 AM,-42,-50,45,30.30,,WSW,2.3,,,,,240,2013-01-25 12:00:00
6:00 AM,-42.0,-49.7,65,30.30,-9999.0,WSW,2.3,-,N/A,,Unknown,240,2013-01-25 12:00:00
7:00 AM,-41.8,-49.5,65,30.30,-9999.0,Calm,Calm,-,N/A,,Unknown,0,2013-01-25 13:00:00
8:00 AM,-40.7,-48.1,66,30.30,-9999.0,Calm,Calm,-,N/A,,Unknown,0,2013-01-25 14:00:00
9:00 AM,-39.3,-46.5,67,30.30,-9999.0,SSW,1.2,-,N/A,,Unknown,210,2013-01-25 15:00:00
10:00 AM,-35.5,-42.5,68,30.32,-9999.0,SE,2.3,-,N/A,,Unknown,140,2013-01-25 16:00:00
11:00 AM,-27.4,-33.7,72,30.32,-9999.0,SW,2.3,-,N/A,,Unknown,220,2013-01-25 17:00:00
12:00 PM,-21,-27,61,30.31,,SW,2.3,,,,,220,2013-01-25 18:00:00
12:00 PM,-20.7,-26.7,74,30.31,-9999.0,SW,2.3,-,N/A,,Unknown,220,2013-01-25 18:00:00
1:00 PM,-15.0,-21.6,72,30.30,-9999.0,SW,4.6,-,N/A,,Unknown,230,2013-01-25 19:00:00
2:00 PM,-12.1,-20.9,65,30.28,-9999.0,SW,4.6,-,N/A,,Unknown,220,2013-01-25 20:00:00
3:00 PM,-10.1,-19.1,65,30.27,-9999.0,SW,4.6,-,N/A,,Unknown,230,2013-01-25 21:00:00
4:00 PM,-12.8,-20.2,70,30.25,-9999.0,SW,3.5,-,N/A,,Unknown,220,2013-01-25 22:00:00
5:00 PM,-14.4,-20.7,73,30.24,-9999.0,South,3.5,-,N/A,,Unknown,190,2013-01-25 23:00:00
6:00 PM,-15,-21,61,30.24,,South,3.5,,,,,180,2013-01-26 00:00:00
6:00 PM,-15.2,-20.9,75,30.24,-9999.0,South,3.5,-,N/A,,Unknown,180,2013-01-26 00:00:00
7:00 PM,-14.6,-20.0,77,30.22,-9999.0,SSW,3.5,-,N/A,,Unknown,210,2013-01-26 01:00:00
8:00 PM,-15.0,-20.6,76,30.22,-9999.0,SSW,3.5,-,N/A,,Unknown,210,2013-01-26 02:00:00
9:00 PM,-14.1,-19.5,77,30.21,-9999.0,SSW,3.5,-,N/A,,Unknown,210,2013-01-26 03:00:00
10:00 PM,-11.4,-17.0,76,30.19,-9999.0,SSW,5.8,-,N/A,,Unknown,200,2013-01-26 04:00:00
11:00 PM,-8.7,-14.4,76,30.17,-9999.0,SW,5.8,-,N/A,,Unknown,220,2013-01-26 05:00:00